STARLINK-11287 [DTC]

Last updated on Sun Oct 06 2024 00:02:04 GMT+0000 (Coordinated Universal Time)

1 60998U 24158J 24279.40978470 .00012633 00000+0 81005-4 0 9997 2 60998 53.1576 326.4271 0001572 112.2444 247.8743 15.76747913 5863
UTC large
Height (km)
Speed (km/s)
/
Latitude / Longitude
Inclination (degrees)
Orbital Period (minutes)
Azimuth
Elevation
Range (km)
Doppler Factor

Next 0 passes for location: London (51.5072 / 0.1276)

Sorry there are no passes over London.